| time (UTC) | temp F | wind direction | speed MPH | gust MPH | rain 1hr in | rain 24hr in | rain mn in | humidity % | barometer mb |
| 20260904115016 | 77 | 105 | 0.0 | 0.0 | 0.00 | 0.00 | 0.00 | 97 | 1006.2 |
| 20260904114018 | 77 | 135 | 0.0 | 0.0 | 0.00 | 0.00 | 0.00 | 97 | 1006.2 |
| 20260904113116 | 77 | 135 | 0.0 | 0.0 | 0.00 | 0.00 | 0.00 | 97 | 1006.2 |
| 20260904112118 | 77 | 141 | 1.0 | 5.0 | 0.00 | 0.00 | 0.00 | 97 | 1006.2 |
| 20260904111118 | 77 | 157 | 0.0 | 0.0 | 0.00 | 0.00 | 0.00 | 97 | 1005.9 |
| 20260904110117 | 77 | 157 | 0.0 | 1.0 | 0.00 | 0.00 | 0.00 | 97 | 1005.9 |
| 20260904105117 | 77 | 180 | 0.0 | 0.0 | 0.00 | 0.00 | 0.00 | 97 | 1005.9 |
| 20260904104116 | 78 | 135 | 0.0 | 3.0 | 0.00 | 0.00 | 0.00 | 97 | 1005.6 |
| 20260904103118 | 78 | 142 | 0.0 | 5.0 | 0.00 | 0.00 | 0.00 | 97 | 1005.6 |
| 20260904102217 | 78 | 180 | 0.0 | 0.0 | 0.00 | 0.00 | 0.00 | 97 | 1005.6 |
| 20260904101216 | 78 | 180 | 0.0 | 0.0 | 0.00 | 0.00 | 0.00 | 97 | 1005.6 |
| 20260904100217 | 78 | 112 | 0.0 | 0.0 | 0.00 | 0.00 | 0.00 | 97 | 1005.6 |
| 20260904095217 | 78 | 157 | 1.0 | 5.0 | 0.00 | 0.00 | 0.00 | 97 | 1005.6 |
| 20260904094216 | 78 | 180 | 0.0 | 2.0 | 0.00 | 0.00 | 0.00 | 97 | 1005.2 |
| 20260904093233 | 78 | 165 | 1.0 | 4.0 | 0.00 | 0.00 | 0.00 | 97 | 1005.2 |
| 20260904092218 | 78 | 158 | 0.0 | 1.0 | 0.00 | 0.00 | 0.00 | 97 | 1005.6 |
| 20260904091315 | 78 | 167 | 1.0 | 4.0 | 0.00 | 0.00 | 0.00 | 97 | 1005.6 |
| 20260904090319 | 78 | 177 | 2.0 | 6.0 | 0.00 | 0.00 | 0.00 | 97 | 1005.2 |
| 20260904085318 | 78 | 182 | 0.0 | 1.0 | 0.00 | 0.00 | 0.00 | 97 | 1005.6 |
| 20260904083318 | 78 | 176 | 2.0 | 7.0 | 0.00 | 0.00 | 0.00 | 96 | 1005.6 |
| 20260904081316 | 78 | 186 | 1.0 | 7.0 | 0.00 | 0.00 | 0.00 | 96 | 1005.2 |
| 20260904080317 | 78 | 215 | 0.0 | 1.0 | 0.00 | 0.00 | 0.00 | 96 | 1005.6 |
| 20260904075316 | 78 | 142 | 1.0 | 5.0 | 0.00 | 0.00 | 0.00 | 96 | 1005.6 |
| 20260904073318 | 78 | 176 | 0.0 | 2.0 | 0.00 | 0.00 | 0.00 | 95 | 1005.6 |
| 20260904072317 | 78 | 159 | 1.0 | 5.0 | 0.00 | 0.00 | 0.00 | 95 | 1005.6 |
| 20260904071316 | 78 | 180 | 1.0 | 3.0 | 0.00 | 0.00 | 0.00 | 95 | 1005.6 |
| 20260904070415 | 78 | 176 | 3.0 | 6.0 | 0.00 | 0.00 | 0.00 | 94 | 1005.6 |
| 20260904065419 | 79 | 180 | 0.0 | 2.0 | 0.00 | 0.00 | 0.00 | 93 | 1005.6 |
| 20260904064516 | 79 | 157 | 2.0 | 6.0 | 0.00 | 0.00 | 0.00 | 93 | 1005.6 |
| 20260904063517 | 79 | 160 | 1.0 | 4.0 | 0.00 | 0.00 | 0.00 | 93 | 1005.6 |
| 20260904062616 | 79 | 180 | 0.0 | 1.0 | 0.00 | 0.00 | 0.00 | 92 | 1005.6 |
| 20260904061617 | 78 | 180 | 1.0 | 6.0 | 0.00 | 0.00 | 0.00 | 92 | 1005.6 |
| 20260904060716 | 78 | 180 | 0.0 | 2.0 | 0.00 | 0.00 | 0.00 | 92 | 1005.6 |
| 20260904054716 | 78 | 180 | 0.0 | 2.0 | 0.00 | 0.00 | 0.00 | 91 | 1005.6 |
| 20260904053719 | 78 | 117 | 1.0 | 3.0 | 0.00 | 0.00 | 0.00 | 91 | 1005.6 |
| 20260904052719 | 78 | 174 | 1.0 | 6.0 | 0.00 | 0.00 | 0.00 | 91 | 1005.6 |
| 20260904051717 | 78 | 142 | 1.0 | 5.0 | 0.00 | 0.00 | 0.00 | 91 | 1005.6 |
| 20260904050816 | 77 | 180 | 0.0 | 0.0 | 0.00 | 0.00 | 0.00 | 91 | 1005.6 |
| 20260904045915 | 78 | 177 | 0.0 | 2.0 | 0.00 | 0.00 | 0.00 | 92 | 1005.6 |
| 20260904044917 | 78 | 148 | 2.0 | 5.0 | 0.00 | 0.00 | 0.00 | 92 | 1005.6 |
| 20260904043915 | 78 | 157 | 1.0 | 3.0 | 0.00 | 0.00 | 0.00 | 92 | 1005.6 |
| 20260904042917 | 78 | 154 | 2.0 | 5.0 | 0.00 | 0.00 | 0.00 | 91 | 1005.6 |
| 20260904041018 | 78 | 145 | 2.0 | 5.0 | 0.00 | 0.00 | 0.00 | 91 | 1005.6 |
| 20260904040016 | 78 | 180 | 0.0 | 2.0 | 0.00 | 0.00 | 0.00 | 90 | 1005.2 |
| 20260904034016 | 77 | 130 | 2.0 | 5.0 | 0.00 | 0.00 | 0.00 | 89 | 1005.2 |
| 20260904033016 | 79 | 135 | 1.0 | 3.0 | 0.00 | 0.00 | 0.00 | 89 | 1005.2 |
| 20260904032017 | 79 | 157 | 1.0 | 2.0 | 0.00 | 0.00 | 0.00 | 88 | 1005.2 |
| 20260904025018 | 79 | 128 | 2.0 | 5.0 | 0.00 | 0.00 | 0.00 | 85 | 1004.9 |
| 20260904023116 | 80 | 135 | 1.0 | 2.0 | 0.00 | 0.00 | 0.00 | 83 | 1004.9 |
| 20260904022117 | 80 | 142 | 2.0 | 5.0 | 0.00 | 0.00 | 0.00 | 81 | 1004.9 |
| 20260904021214 | 80 | 135 | 2.0 | 3.0 | 0.00 | 0.00 | 0.00 | 80 | 1004.5 |
| 20260904015315 | 81 | 167 | 0.0 | 3.0 | 0.00 | 0.00 | 0.00 | 76 | 1004.2 |
| 20260904014315 | 81 | 112 | 0.0 | 2.0 | 0.00 | 0.00 | 0.00 | 74 | 1003.8 |
| 20260904013317 | 82 | 135 | 2.0 | 4.0 | 0.00 | 0.00 | 0.00 | 73 | 1003.5 |
| 20260904012316 | 82 | 135 | 2.0 | 5.0 | 0.00 | 0.00 | 0.00 | 72 | 1003.5 |
| 20260904010514 | 83 | 135 | 1.0 | 3.0 | 0.00 | 0.00 | 0.00 | 71 | 1003.5 |
| 20260904005514 | 83 | 135 | 0.0 | 0.0 | 0.00 | 0.00 | 0.00 | 69 | 1003.5 |
| 20260904004517 | 84 | 127 | 0.0 | 3.0 | 0.00 | 0.00 | 0.00 | 70 | 1003.5 |
| 20260904003614 | 84 | 163 | 0.0 | 0.0 | 0.00 | 0.00 | 0.00 | 68 | 1003.5 |
| 20260904002616 | 85 | 120 | 1.0 | 4.0 | 0.00 | 0.00 | 0.00 | 68 | 1003.2 |
| 20260904001617 | 86 | 160 | 1.0 | 5.0 | 0.00 | 0.00 | 0.00 | 67 | 1002.8 |
| 20260904000617 | 87 | 92 | 0.0 | 2.0 | 0.00 | 0.00 | 0.00 | 66 | 1002.8 |
| 20260903235614 | 87 | 132 | 1.0 | 4.0 | 0.00 | 0.00 | 0.00 | 65 | 1002.4 |
| 20260903234615 | 88 | 153 | 1.0 | 4.0 | 0.00 | 0.00 | 0.00 | 63 | 1002.4 |
| 20260903232618 | 87 | 154 | 3.0 | 7.0 | 0.00 | 0.00 | 0.00 | 66 | 1002.8 |
| 20260903231715 | 87 | 112 | 0.0 | 0.0 | 0.00 | 0.00 | 0.00 | 68 | 1002.6 |
| 20260903230714 | 87 | 124 | 2.0 | 5.0 | 0.00 | 0.00 | 0.00 | 67 | 1002.3 |
| 20260903225714 | 88 | 132 | 4.0 | 7.0 | 0.00 | 0.00 | 0.00 | 65 | 1002.1 |
| 20260903224715 | 89 | 111 | 3.0 | 5.0 | 0.00 | 0.00 | 0.00 | 62 | 1001.7 |
| 20260903223717 | 91 | 141 | 3.0 | 5.0 | 0.00 | 0.00 | 0.00 | 52 | 1001.4 |
| 20260903222813 | 92 | 119 | 4.0 | 8.0 | 0.00 | 0.00 | 0.00 | 51 | 1001.4 |
| 20260903221815 | 93 | 130 | 4.0 | 8.0 | 0.00 | 0.00 | 0.00 | 50 | 1001.1 |
| 20260903220818 | 94 | 125 | 3.0 | 6.0 | 0.00 | 0.00 | 0.00 | 48 | 1000.7 |
| 20260903214914 | 94 | 112 | 1.0 | 4.0 | 0.00 | 0.00 | 0.00 | 49 | 1000.7 |
| 20260903213916 | 94 | 90 | 2.0 | 5.0 | 0.00 | 0.00 | 0.00 | 49 | 1001.1 |
| 20260903212917 | 94 | 106 | 3.0 | 6.0 | 0.00 | 0.00 | 0.00 | 49 | 1000.7 |
| 20260903212016 | 96 | 162 | 0.0 | 3.0 | 0.00 | 0.00 | 0.00 | 47 | 1000.7 |
| 20260903211017 | 96 | 139 | 1.0 | 3.0 | 0.00 | 0.00 | 0.00 | 45 | 1000.7 |
| 20260903205015 | 97 | 141 | 0.0 | 0.0 | 0.00 | 0.00 | 0.00 | 46 | 1000.7 |
| 20260903204017 | 97 | 164 | 0.0 | 2.0 | 0.00 | 0.00 | 0.00 | 47 | 1001.1 |
| 20260903202015 | 95 | 239 | 2.0 | 6.0 | 0.00 | 0.00 | 0.00 | 47 | 1001.4 |
| 20260903201017 | 96 | 112 | 0.0 | 0.0 | 0.00 | 0.00 | 0.00 | 48 | 1001.4 |
| 20260903200115 | 96 | 169 | 0.0 | 0.0 | 0.00 | 0.00 | 0.00 | 48 | 1001.4 |
| 20260903195116 | 96 | 90 | 1.0 | 3.0 | 0.00 | 0.00 | 0.00 | 48 | 1001.4 |
| 20260903194115 | 97 | 157 | 0.0 | 0.0 | 0.00 | 0.00 | 0.00 | 47 | 1001.4 |
| 20260903191216 | 96 | 180 | 0.0 | 0.0 | 0.00 | 0.00 | 0.00 | 48 | 1002.1 |
| 20260903190214 | 96 | 193 | 1.0 | 3.0 | 0.00 | 0.00 | 0.00 | 49 | 1002.1 |
| 20260903185214 | 97 | 164 | 1.0 | 5.0 | 0.00 | 0.00 | 0.00 | 48 | 1002.4 |
| 20260903184215 | 96 | 90 | 0.0 | 0.0 | 0.00 | 0.00 | 0.00 | 50 | 1002.8 |
| 20260903183214 | 95 | 24 | 0.0 | 1.0 | 0.00 | 0.00 | 0.00 | 49 | 1003.2 |
| 20260903182214 | 94 | 170 | 2.0 | 6.0 | 0.00 | 0.00 | 0.00 | 51 | 1003.5 |
| 20260903181313 | 94 | 114 | 2.0 | 4.0 | 0.00 | 0.00 | 0.00 | 50 | 1003.5 |
| 20260903180314 | 94 | 216 | 1.0 | 5.0 | 0.00 | 0.00 | 0.00 | 52 | 1003.8 |
| 20260903175414 | 93 | 157 | 3.0 | 6.0 | 0.00 | 0.00 | 0.00 | 51 | 1003.8 |
| 20260903173515 | 93 | 157 | 1.0 | 4.0 | 0.00 | 0.00 | 0.00 | 52 | 1004.2 |
| 20260903172516 | 92 | 210 | 3.0 | 7.0 | 0.00 | 0.00 | 0.00 | 54 | 1004.2 |
| 20260903171517 | 92 | 232 | 1.0 | 5.0 | 0.00 | 0.00 | 0.00 | 55 | 1004.5 |
| 20260903170516 | 91 | 170 | 2.0 | 6.0 | 0.00 | 0.00 | 0.00 | 57 | 1004.5 |
| 20260903164613 | 89 | 158 | 4.0 | 10.0 | 0.00 | 0.00 | 0.00 | 60 | 1004.5 |
| 20260903164515 | 90 | 168 | 5.0 | 10.0 | 0.00 | 0.00 | 0.00 | 61 | 1004.5 |
| 20260903162515 | 89 | 175 | 3.0 | 5.0 | 0.00 | 0.00 | 0.00 | 63 | 1004.9 |
| 20260903160613 | 87 | 107 | 1.0 | 7.0 | 0.00 | 0.00 | 0.00 | 68 | 1004.9 |
| 20260903155616 | 88 | 181 | 3.0 | 10.0 | 0.00 | 0.00 | 0.00 | 67 | 1004.5 |
| 20260903154617 | 88 | 206 | 4.0 | 8.0 | 0.00 | 0.00 | 0.00 | 67 | 1004.9 |
| 20260903153714 | 87 | 154 | 2.0 | 5.0 | 0.00 | 0.00 | 0.00 | 70 | 1004.9 |
| 20260903152715 | 86 | 126 | 0.0 | 2.0 | 0.00 | 0.00 | 0.00 | 72 | 1004.9 |
| 20260903151717 | 84 | 148 | 1.0 | 5.0 | 0.00 | 0.00 | 0.00 | 75 | 1005.1 |
| 20260903150718 | 83 | 171 | 3.0 | 6.0 | 0.00 | 0.00 | 0.00 | 78 | 1005.4 |
| 20260903145715 | 83 | 171 | 2.0 | 7.0 | 0.00 | 0.00 | 0.00 | 79 | 1005.6 |
| 20260903144714 | 83 | 180 | 2.0 | 5.0 | 0.00 | 0.00 | 0.00 | 79 | 1005.4 |
| 20260903143714 | 82 | 172 | 2.0 | 5.0 | 0.00 | 0.00 | 0.00 | 81 | 1005.4 |
| 20260903142716 | 82 | 175 | 4.0 | 7.0 | 0.00 | 0.00 | 0.00 | 82 | 1005.6 |
| 20260903141714 | 81 | 207 | 5.0 | 9.0 | 0.00 | 0.00 | 0.00 | 84 | 1005.6 |
| 20260903140715 | 81 | 171 | 3.0 | 6.0 | 0.00 | 0.00 | 0.00 | 86 | 1005.6 |
| 20260903135813 | 80 | 165 | 2.0 | 9.0 | 0.00 | 0.00 | 0.00 | 87 | 1005.6 |
| 20260903134814 | 80 | 153 | 2.0 | 5.0 | 0.00 | 0.00 | 0.00 | 88 | 1005.6 |
| 20260903133815 | 80 | 349 | 2.0 | 5.0 | 0.00 | 0.00 | 0.00 | 90 | 1005.6 |
| 20260903132815 | 80 | 170 | 1.0 | 5.0 | 0.00 | 0.00 | 0.00 | 92 | 1005.9 |
| 20260903131814 | 80 | 137 | 1.0 | 5.0 | 0.00 | 0.00 | 0.00 | 93 | 1005.9 |
| 20260903130817 | 79 | 177 | 0.0 | 2.0 | 0.00 | 0.00 | 0.00 | 94 | 1005.9 |
| 20260903125914 | 79 | 180 | 1.0 | 4.0 | 0.00 | 0.00 | 0.00 | 95 | 1005.9 |
| 20260903125013 | 79 | 175 | 3.0 | 5.0 | 0.00 | 0.00 | 0.00 | 96 | 1005.6 |
| 20260903124013 | 78 | 180 | 2.0 | 5.0 | 0.00 | 0.00 | 0.00 | 96 | 1005.6 |
| 20260903123015 | 78 | 153 | 1.0 | 5.0 | 0.00 | 0.00 | 0.00 | 96 | 1005.9 |
| 20260903122014 | 78 | 180 | 1.0 | 3.0 | 0.00 | 0.00 | 0.00 | 96 | 1005.6 |
| 20260903120113 | 78 | 180 | 1.0 | 4.0 | 0.00 | 0.00 | 0.00 | 97 | 1005.6 |